contact:dominique.lefevre@mio.osupytheas.fr, maurice.libes@osupytheas.fr, didier.mallarino@osupytheas.fr
Project:EMSO http://www.emso-fr.org/EMSO-France
Depth: 2436.0 m
Title:EMSO Ligure Ouest : Data MII capteur MICROCAT
DateTime_Computer,Latitude,Longitude,Temperature,Conductivity,Pressure,DateTime_Instrument
DateTime_Computer,Latitude,Longitude,degC,S m-1,dbar,DateTime_Instrument
2023-05-22T00:00:15Z,42.805,6.029,13.3022,4.60076,2470.717,2023-5-22T02:02:27Z
2023-05-22T00:03:18Z,42.805,6.029,13.3015,4.60069,2470.707,2023-5-22T02:05:30Z
2023-05-22T00:06:21Z,42.805,6.029,13.3019,4.60075,2470.693,2023-5-22T02:08:33Z
2023-05-22T00:09:24Z,42.805,6.029,13.3024,4.60074,2470.717,2023-5-22T02:11:36Z
2023-05-22T00:12:27Z,42.805,6.029,13.3019,4.60079,2470.707,2023-5-22T02:14:39Z
2023-05-22T00:15:30Z,42.805,6.029,13.3019,4.60075,2470.693,2023-5-22T02:17:42Z
2023-05-22T00:18:33Z,42.805,6.029,13.3019,4.60069,2470.693,2023-5-22T02:20:46Z
2023-05-22T00:21:37Z,42.805,6.029,13.3015,4.60071,2470.693,2023-5-22T02:23:49Z
2023-05-22T00:24:40Z,42.805,6.029,13.3019,4.60070,2470.679,2023-5-22T02:26:52Z
2023-05-22T00:27:43Z,42.805,6.029,13.3019,4.60076,2470.693,2023-5-22T02:29:55Z
2023-05-22T00:30:46Z,42.805,6.029,13.3015,4.60070,2470.707,2023-5-22T02:32:58Z
2023-05-22T00:33:49Z,42.805,6.029,13.3016,4.60069,2470.693,2023-5-22T02:36:01Z
2023-05-22T00:36:52Z,42.805,6.029,13.3019,4.60077,2470.693,2023-5-22T02:39:04Z
2023-05-22T00:39:55Z,42.805,6.029,13.3018,4.60069,2470.707,2023-5-22T02:42:07Z
2023-05-22T00:42:58Z,42.805,6.029,13.3015,4.60073,2470.707,2023-5-22T02:45:10Z
2023-05-22T00:46:01Z,42.805,6.029,13.3017,4.60069,2470.624,2023-5-22T02:48:13Z
2023-05-22T00:49:04Z,42.805,6.029,13.3018,4.60072,2470.684,2023-5-22T02:51:16Z
2023-05-22T00:52:07Z,42.805,6.029,13.3014,4.60072,2470.646,2023-5-22T02:54:19Z
2023-05-22T00:55:10Z,42.805,6.029,13.3016,4.60071,2470.707,2023-5-22T02:57:22Z
2023-05-22T00:58:14Z,42.805,6.029,13.3020,4.60070,2470.67,2023-5-22T03:00:26Z
2023-05-22T01:01:17Z,42.805,6.029,13.3015,4.60069,2470.707,2023-5-22T03:03:29Z
2023-05-22T01:04:20Z,42.805,6.029,13.3016,4.60071,2470.67,2023-5-22T03:06:32Z
2023-05-22T01:07:23Z,42.805,6.029,13.3015,4.60078,2470.646,2023-5-22T03:09:35Z
2023-05-22T01:10:26Z,42.805,6.029,13.3019,4.60072,2470.67,2023-5-22T03:12:38Z
2023-05-22T01:13:29Z,42.805,6.029,13.3015,4.60072,2470.661,2023-5-22T03:15:41Z
2023-05-22T01:16:32Z,42.805,6.029,13.3016,4.60072,2470.67,2023-5-22T03:18:44Z
2023-05-22T01:19:35Z,42.805,6.029,13.3018,4.60078,2470.67,2023-5-22T03:21:47Z
2023-05-22T01:22:38Z,42.805,6.029,13.3014,4.60070,2470.67,2023-5-22T03:24:50Z
2023-05-22T01:25:41Z,42.805,6.029,13.3019,4.60071,2470.67,2023-5-22T03:27:53Z
2023-05-22T01:28:44Z,42.805,6.029,13.3016,4.60072,2470.661,2023-5-22T03:30:56Z
2023-05-22T01:31:47Z,42.805,6.029,13.3018,4.60074,2470.646,2023-5-22T03:33:59Z
2023-05-22T01:34:50Z,42.805,6.029,13.3022,4.60072,2470.684,2023-5-22T03:37:03Z
2023-05-22T01:37:54Z,42.805,6.029,13.3018,4.60077,2470.646,2023-5-22T03:40:06Z
2023-05-22T01:40:57Z,42.805,6.029,13.3016,4.60072,2470.624,2023-5-22T03:43:09Z
2023-05-22T01:44:00Z,42.805,6.029,13.3017,4.60076,2470.633,2023-5-22T03:46:12Z
2023-05-22T01:47:03Z,42.805,6.029,13.3015,4.60072,2470.624,2023-5-22T03:49:15Z
2023-05-22T01:50:06Z,42.805,6.029,13.3021,4.60076,2470.637,2023-5-22T03:52:18Z
2023-05-22T01:53:09Z,42.805,6.029,13.3014,4.60072,2470.624,2023-5-22T03:55:21Z
2023-05-22T01:56:12Z,42.805,6.029,13.3021,4.60074,2470.614,2023-5-22T03:58:24Z
2023-05-22T01:59:15Z,42.805,6.029,13.3020,4.60073,2470.614,2023-5-22T04:01:27Z
2023-05-22T02:02:18Z,42.805,6.029,13.3020,4.60074,2470.624,2023-5-22T04:04:30Z
2023-05-22T02:05:21Z,42.805,6.029,13.3019,4.60076,2470.646,2023-5-22T04:07:33Z
2023-05-22T02:08:24Z,42.805,6.029,13.3023,4.60071,2470.6,2023-5-22T04:10:36Z
2023-05-22T02:11:27Z,42.805,6.029,13.3016,4.60078,2470.624,2023-5-22T04:13:40Z
2023-05-22T02:14:31Z,42.805,6.029,13.3016,4.60075,2470.624,2023-5-22T04:16:43Z
2023-05-22T02:17:34Z,42.805,6.029,13.3019,4.60069,2470.646,2023-5-22T04:19:46Z
2023-05-22T02:20:37Z,42.805,6.029,13.3015,4.60070,2470.6,2023-5-22T04:22:49Z
2023-05-22T02:23:40Z,42.805,6.029,13.3017,4.60072,2470.637,2023-5-22T04:25:52Z
2023-05-22T02:26:43Z,42.805,6.029,13.3018,4.60072,2470.624,2023-5-22T04:28:55Z
2023-05-22T02:29:46Z,42.805,6.029,13.3019,4.60087,2470.637,2023-5-22T04:31:58Z
2023-05-22T02:32:49Z,42.805,6.029,13.3016,4.60069,2470.637,2023-5-22T04:35:01Z
2023-05-22T02:35:52Z,42.805,6.029,13.3014,4.60073,2470.624,2023-5-22T04:38:04Z
2023-05-22T02:38:55Z,42.805,6.029,13.3025,4.60077,2470.6,2023-5-22T04:41:07Z
2023-05-22T02:41:58Z,42.805,6.029,13.3019,4.60077,2470.577,2023-5-22T04:44:10Z
2023-05-22T02:45:01Z,42.805,6.029,13.3015,4.60078,2470.614,2023-5-22T04:47:13Z
2023-05-22T02:48:04Z,42.805,6.029,13.3014,4.60073,2470.6,2023-5-22T04:50:16Z
2023-05-22T02:51:08Z,42.805,6.029,13.3019,4.60081,2470.6,2023-5-22T04:53:20Z
2023-05-22T02:54:11Z,42.805,6.029,13.3015,4.60071,2470.646,2023-5-22T04:56:23Z
2023-05-22T02:57:14Z,42.805,6.029,13.3013,4.60074,2470.624,2023-5-22T04:59:26Z
2023-05-22T03:00:17Z,42.805,6.029,13.3019,4.60071,2470.6,2023-5-22T05:02:29Z
2023-05-22T03:03:20Z,42.805,6.029,13.3019,4.60073,2470.637,2023-5-22T05:05:32Z
2023-05-22T03:06:23Z,42.805,6.029,13.3019,4.60070,2470.6,2023-5-22T05:08:35Z
2023-05-22T03:09:26Z,42.805,6.029,13.3019,4.60080,2470.6,2023-5-22T05:11:38Z
2023-05-22T03:12:29Z,42.805,6.029,13.3014,4.60074,2470.624,2023-5-22T05:14:41Z
2023-05-22T03:15:32Z,42.805,6.029,13.3015,4.60072,2470.646,2023-5-22T05:17:44Z
2023-05-22T03:18:35Z,42.805,6.029,13.3022,4.60072,2470.577,2023-5-22T05:20:47Z
2023-05-22T03:21:38Z,42.805,6.029,13.3018,4.60074,2470.614,2023-5-22T05:23:50Z
2023-05-22T03:24:41Z,42.805,6.029,13.3019,4.60072,2470.6,2023-5-22T05:26:53Z
2023-05-22T03:27:44Z,42.805,6.029,13.3020,4.60070,2470.624,2023-5-22T05:29:57Z
2023-05-22T03:30:48Z,42.805,6.029,13.3020,4.60072,2470.633,2023-5-22T05:33:00Z
2023-05-22T03:33:51Z,42.805,6.029,13.3021,4.60073,2470.6,2023-5-22T05:36:03Z
2023-05-22T03:36:54Z,42.805,6.029,13.3017,4.60071,2470.624,2023-5-22T05:39:06Z
2023-05-22T03:39:57Z,42.805,6.029,13.3018,4.60071,2470.6,2023-5-22T05:42:09Z
2023-05-22T03:43:00Z,42.805,6.029,13.3021,4.60073,2470.624,2023-5-22T05:45:12Z
2023-05-22T03:46:03Z,42.805,6.029,13.3025,4.60074,2470.624,2023-5-22T05:48:15Z
2023-05-22T03:49:06Z,42.805,6.029,13.3017,4.60077,2470.577,2023-5-22T05:51:18Z
2023-05-22T03:52:09Z,42.805,6.029,13.3019,4.60079,2470.6,2023-5-22T05:54:21Z
2023-05-22T03:55:12Z,42.805,6.029,13.3029,4.60070,2470.624,2023-5-22T05:57:24Z
2023-05-22T03:58:15Z,42.805,6.029,13.3019,4.60072,2470.591,2023-5-22T06:00:27Z
2023-05-22T04:01:18Z,42.805,6.029,13.3017,4.60072,2470.614,2023-5-22T06:03:30Z
2023-05-22T04:04:21Z,42.805,6.029,13.3019,4.60084,2470.6,2023-5-22T06:06:34Z
2023-05-22T04:07:24Z,42.805,6.029,13.3012,4.60075,2470.577,2023-5-22T06:09:37Z
2023-05-22T04:10:28Z,42.805,6.029,13.3012,4.60073,2470.6,2023-5-22T06:12:40Z
2023-05-22T04:13:31Z,42.805,6.029,13.3018,4.60074,2470.6,2023-5-22T06:15:43Z
2023-05-22T04:16:34Z,42.805,6.029,13.3016,4.60070,2470.6,2023-5-22T06:18:46Z
2023-05-22T04:19:37Z,42.805,6.029,13.3019,4.60070,2470.624,2023-5-22T06:21:49Z
2023-05-22T04:22:40Z,42.805,6.029,13.3019,4.60071,2470.614,2023-5-22T06:24:52Z
2023-05-22T04:25:43Z,42.805,6.029,13.3015,4.60073,2470.6,2023-5-22T06:27:55Z
2023-05-22T04:28:46Z,42.805,6.029,13.3023,4.60079,2470.614,2023-5-22T06:30:58Z
2023-05-22T04:31:49Z,42.805,6.029,13.3023,4.60078,2470.624,2023-5-22T06:34:01Z
2023-05-22T04:34:52Z,42.805,6.029,13.3017,4.60080,2470.577,2023-5-22T06:37:04Z
2023-05-22T04:37:55Z,42.805,6.029,13.3014,4.60078,2470.577,2023-5-22T06:40:07Z
2023-05-22T04:40:58Z,42.805,6.029,13.3019,4.60078,2470.6,2023-5-22T06:43:10Z
2023-05-22T04:44:02Z,42.805,6.029,13.3014,4.60072,2470.624,2023-5-22T06:46:14Z
2023-05-22T04:47:05Z,42.805,6.029,13.3016,4.60074,2470.591,2023-5-22T06:49:17Z
2023-05-22T04:50:08Z,42.805,6.029,13.3014,4.60075,2470.624,2023-5-22T06:52:20Z
2023-05-22T04:53:11Z,42.805,6.029,13.3021,4.60075,2470.661,2023-5-22T06:55:23Z
2023-05-22T04:56:14Z,42.805,6.029,13.3019,4.60074,2470.624,2023-5-22T06:58:26Z
2023-05-22T04:59:17Z,42.805,6.029,13.3018,4.60072,2470.6,2023-5-22T07:01:29Z
2023-05-22T05:02:20Z,42.805,6.029,13.3014,4.60077,2470.624,2023-5-22T07:04:32Z
2023-05-22T05:05:23Z,42.805,6.029,13.3014,4.60074,2470.637,2023-5-22T07:07:35Z
2023-05-22T05:08:26Z,42.805,6.029,13.3017,4.60072,2470.586,2023-5-22T07:10:38Z
2023-05-22T05:11:29Z,42.805,6.029,13.3014,4.60071,2470.624,2023-5-22T07:13:41Z
2023-05-22T05:14:32Z,42.805,6.029,13.3022,4.60072,2470.637,2023-5-22T07:16:44Z
2023-05-22T05:17:35Z,42.805,6.029,13.3013,4.60079,2470.661,2023-5-22T07:19:48Z
2023-05-22T05:20:38Z,42.805,6.029,13.3015,4.60070,2470.624,2023-5-22T07:22:51Z
2023-05-22T05:23:42Z,42.805,6.029,13.3015,4.60076,2470.614,2023-5-22T07:25:54Z
2023-05-22T05:26:45Z,42.805,6.029,13.3014,4.60074,2470.637,2023-5-22T07:28:57Z
2023-05-22T05:29:48Z,42.805,6.029,13.3017,4.60072,2470.637,2023-5-22T07:32:00Z
2023-05-22T05:32:51Z,42.805,6.029,13.3017,4.60073,2470.624,2023-5-22T07:35:03Z
2023-05-22T05:35:54Z,42.805,6.029,13.3021,4.60074,2470.646,2023-5-22T07:38:06Z
2023-05-22T05:38:57Z,42.805,6.029,13.3014,4.60078,2470.624,2023-5-22T07:41:09Z
2023-05-22T05:42:00Z,42.805,6.029,13.3019,4.60073,2470.646,2023-5-22T07:44:12Z
2023-05-22T05:45:03Z,42.805,6.029,13.3015,4.60074,2470.624,2023-5-22T07:47:15Z
2023-05-22T05:48:06Z,42.805,6.029,13.3017,4.60072,2470.624,2023-5-22T07:50:18Z
2023-05-22T05:51:09Z,42.805,6.029,13.3016,4.60075,2470.646,2023-5-22T07:53:21Z
2023-05-22T05:54:12Z,42.805,6.029,13.3019,4.60073,2470.646,2023-5-22T07:56:24Z
2023-05-22T05:57:16Z,42.805,6.029,13.3016,4.60072,2470.637,2023-5-22T07:59:28Z
2023-05-22T06:00:19Z,42.805,6.029,13.3018,4.60074,2470.646,2023-5-22T08:02:31Z
2023-05-22T06:03:22Z,42.805,6.029,13.3013,4.60074,2470.646,2023-5-22T08:05:34Z
2023-05-22T06:06:25Z,42.805,6.029,13.3014,4.60076,2470.646,2023-5-22T08:08:37Z
2023-05-22T06:09:28Z,42.805,6.029,13.3016,4.60074,2470.661,2023-5-22T08:11:40Z
2023-05-22T06:12:31Z,42.805,6.029,13.3015,4.60072,2470.684,2023-5-22T08:14:43Z
2023-05-22T06:15:34Z,42.805,6.029,13.3014,4.60072,2470.661,2023-5-22T08:17:46Z
2023-05-22T06:18:37Z,42.805,6.029,13.3015,4.60079,2470.661,2023-5-22T08:20:49Z
2023-05-22T06:21:40Z,42.805,6.029,13.3016,4.60074,2470.67,2023-5-22T08:23:52Z
2023-05-22T06:24:43Z,42.805,6.029,13.3016,4.60074,2470.67,2023-5-22T08:26:55Z
2023-05-22T06:27:46Z,42.805,6.029,13.3016,4.60072,2470.637,2023-5-22T08:29:58Z
2023-05-22T06:30:51Z,42.805,6.029,13.3019,4.60075,2470.67,2023-5-22T08:33:03Z
2023-05-22T06:33:54Z,42.805,6.029,13.3016,4.60075,2470.67,2023-5-22T08:36:06Z
2023-05-22T06:36:57Z,42.805,6.029,13.3016,4.60073,2470.707,2023-5-22T08:39:09Z
2023-05-22T06:40:00Z,42.805,6.029,13.3015,4.60073,2470.67,2023-5-22T08:42:12Z
2023-05-22T06:43:03Z,42.805,6.029,13.3016,4.60074,2470.67,2023-5-22T08:45:15Z
2023-05-22T06:46:06Z,42.805,6.029,13.3014,4.60073,2470.693,2023-5-22T08:48:18Z
2023-05-22T06:49:09Z,42.805,6.029,13.3018,4.60075,2470.707,2023-5-22T08:51:21Z
2023-05-22T06:52:12Z,42.805,6.029,13.3017,4.60074,2470.684,2023-5-22T08:54:24Z
2023-05-22T06:55:15Z,42.805,6.029,13.3018,4.60074,2470.693,2023-5-22T08:57:27Z
2023-05-22T06:58:18Z,42.805,6.029,13.3018,4.60073,2470.684,2023-5-22T09:00:30Z
2023-05-22T07:01:21Z,42.805,6.029,13.3012,4.60078,2470.684,2023-5-22T09:03:34Z
2023-05-22T07:04:25Z,42.805,6.029,13.3014,4.60074,2470.67,2023-5-22T09:06:37Z
2023-05-22T07:07:28Z,42.805,6.029,13.3019,4.60074,2470.684,2023-5-22T09:09:40Z
2023-05-22T07:10:31Z,42.805,6.029,13.3015,4.60073,2470.707,2023-5-22T09:12:43Z
2023-05-22T07:13:34Z,42.805,6.029,13.3018,4.60074,2470.693,2023-5-22T09:15:46Z
2023-05-22T07:16:37Z,42.805,6.029,13.3015,4.60079,2470.646,2023-5-22T09:18:49Z
2023-05-22T07:19:40Z,42.805,6.029,13.3015,4.60080,2470.684,2023-5-22T09:21:52Z
2023-05-22T07:22:43Z,42.805,6.029,13.3018,4.60074,2470.693,2023-5-22T09:24:55Z
2023-05-22T07:25:46Z,42.805,6.029,13.3014,4.60075,2470.684,2023-5-22T09:27:58Z
2023-05-22T07:28:49Z,42.805,6.029,13.3017,4.60073,2470.693,2023-5-22T09:31:01Z
2023-05-22T07:31:52Z,42.805,6.029,13.3017,4.60075,2470.67,2023-5-22T09:34:04Z
2023-05-22T07:34:55Z,42.805,6.029,13.3015,4.60072,2470.67,2023-5-22T09:37:07Z
2023-05-22T07:37:58Z,42.805,6.029,13.3015,4.60078,2470.707,2023-5-22T09:40:10Z
2023-05-22T07:41:01Z,42.805,6.029,13.3017,4.60077,2470.67,2023-5-22T09:43:14Z
2023-05-22T07:44:05Z,42.805,6.029,13.3014,4.60073,2470.73,2023-5-22T09:46:17Z
2023-05-22T07:47:08Z,42.805,6.029,13.3015,4.60073,2470.693,2023-5-22T09:49:20Z
2023-05-22T07:50:11Z,42.805,6.029,13.3012,4.60077,2470.73,2023-5-22T09:52:23Z
2023-05-22T07:53:14Z,42.805,6.029,13.3016,4.60078,2470.67,2023-5-22T09:55:26Z
2023-05-22T07:56:17Z,42.805,6.029,13.3017,4.60073,2470.707,2023-5-22T09:58:29Z
2023-05-22T07:59:20Z,42.805,6.029,13.3019,4.60078,2470.717,2023-5-22T10:01:32Z
2023-05-22T08:02:23Z,42.805,6.029,13.3019,4.60073,2470.67,2023-5-22T10:04:35Z
2023-05-22T08:05:26Z,42.805,6.029,13.3015,4.60073,2470.693,2023-5-22T10:07:38Z
2023-05-22T08:08:29Z,42.805,6.029,13.3016,4.60076,2470.703,2023-5-22T10:10:41Z
2023-05-22T08:11:32Z,42.805,6.029,13.3015,4.60079,2470.693,2023-5-22T10:13:44Z
2023-05-22T08:14:35Z,42.805,6.029,13.3015,4.60073,2470.684,2023-5-22T10:16:47Z
2023-05-22T08:17:38Z,42.805,6.029,13.3018,4.60074,2470.693,2023-5-22T10:19:51Z
2023-05-22T08:20:42Z,42.805,6.029,13.3020,4.60072,2470.693,2023-5-22T10:22:54Z
2023-05-22T08:23:45Z,42.805,6.029,13.3014,4.60074,2470.67,2023-5-22T10:25:57Z
2023-05-22T08:26:48Z,42.805,6.029,13.3018,4.60076,2470.73,2023-5-22T10:29:00Z
2023-05-22T08:29:51Z,42.805,6.029,13.3016,4.60075,2470.707,2023-5-22T10:32:03Z
2023-05-22T08:32:54Z,42.805,6.029,13.3020,4.60078,2470.693,2023-5-22T10:35:06Z
2023-05-22T08:35:57Z,42.805,6.029,13.3015,4.60077,2470.693,2023-5-22T10:38:09Z
2023-05-22T08:39:00Z,42.805,6.029,13.3015,4.60074,2470.717,2023-5-22T10:41:12Z
2023-05-22T08:42:03Z,42.805,6.029,13.3019,4.60074,2470.693,2023-5-22T10:44:15Z
2023-05-22T08:45:06Z,42.805,6.029,13.3018,4.60076,2470.707,2023-5-22T10:47:18Z
2023-05-22T08:48:09Z,42.805,6.029,13.3018,4.60077,2470.693,2023-5-22T10:50:21Z
2023-05-22T08:51:12Z,42.805,6.029,13.3019,4.60075,2470.693,2023-5-22T10:53:24Z
2023-05-22T08:54:15Z,42.805,6.029,13.3016,4.60073,2470.67,2023-5-22T10:56:28Z
2023-05-22T08:57:19Z,42.805,6.029,13.3019,4.60073,2470.67,2023-5-22T10:59:31Z
2023-05-22T09:00:22Z,42.805,6.029,13.3017,4.60079,2470.67,2023-5-22T11:02:34Z
2023-05-22T09:03:25Z,42.805,6.029,13.3016,4.60072,2470.67,2023-5-22T11:05:37Z
2023-05-22T09:06:28Z,42.805,6.029,13.3016,4.60078,2470.684,2023-5-22T11:08:40Z
2023-05-22T09:09:31Z,42.805,6.029,13.3019,4.60074,2470.661,2023-5-22T11:11:43Z
2023-05-22T09:12:34Z,42.805,6.029,13.3020,4.60075,2470.67,2023-5-22T11:14:46Z
2023-05-22T09:15:37Z,42.805,6.029,13.3014,4.60077,2470.693,2023-5-22T11:17:49Z
2023-05-22T09:18:40Z,42.805,6.029,13.3019,4.60074,2470.67,2023-5-22T11:20:52Z
2023-05-22T09:21:43Z,42.805,6.029,13.3016,4.60073,2470.684,2023-5-22T11:23:55Z
2023-05-22T09:24:46Z,42.805,6.029,13.3021,4.60077,2470.693,2023-5-22T11:26:58Z
2023-05-22T09:27:49Z,42.805,6.029,13.3019,4.60081,2470.67,2023-5-22T11:30:01Z
2023-05-22T09:30:52Z,42.805,6.029,13.3019,4.60075,2470.646,2023-5-22T11:33:05Z
2023-05-22T09:33:56Z,42.805,6.029,13.3016,4.60077,2470.67,2023-5-22T11:36:08Z
2023-05-22T09:36:59Z,42.805,6.029,13.3017,4.60076,2470.693,2023-5-22T11:39:11Z
2023-05-22T09:40:02Z,42.805,6.029,13.3020,4.60076,2470.646,2023-5-22T11:42:14Z
2023-05-22T09:43:05Z,42.805,6.029,13.3016,4.60075,2470.693,2023-5-22T11:45:17Z
2023-05-22T09:46:08Z,42.805,6.029,13.3021,4.60074,2470.67,2023-5-22T11:48:20Z
2023-05-22T09:49:11Z,42.805,6.029,13.3017,4.60075,2470.684,2023-5-22T11:51:23Z
2023-05-22T09:52:14Z,42.805,6.029,13.3015,4.60075,2470.693,2023-5-22T11:54:26Z
2023-05-22T09:55:17Z,42.805,6.029,13.3021,4.60078,2470.67,2023-5-22T11:57:29Z
2023-05-22T09:58:20Z,42.805,6.029,13.3028,4.60074,2470.661,2023-5-22T12:00:32Z
2023-05-22T10:01:23Z,42.805,6.029,13.3020,4.60073,2470.646,2023-5-22T12:03:35Z
2023-05-22T10:04:26Z,42.805,6.029,13.3024,4.60074,2470.67,2023-5-22T12:06:38Z
2023-05-22T10:07:29Z,42.805,6.029,13.3017,4.60076,2470.693,2023-5-22T12:09:42Z
2023-05-22T10:10:33Z,42.805,6.029,13.3019,4.60074,2470.684,2023-5-22T12:12:45Z
2023-05-22T10:13:36Z,42.805,6.029,13.3022,4.60074,2470.67,2023-5-22T12:15:48Z
2023-05-22T10:16:39Z,42.805,6.029,13.3030,4.60076,2470.646,2023-5-22T12:18:51Z
2023-05-22T10:19:42Z,42.805,6.029,13.3024,4.60079,2470.661,2023-5-22T12:21:54Z
2023-05-22T10:22:45Z,42.805,6.029,13.3023,4.60079,2470.646,2023-5-22T12:24:57Z
2023-05-22T10:25:48Z,42.805,6.029,13.3016,4.60074,2470.646,2023-5-22T12:28:00Z
2023-05-22T10:28:51Z,42.805,6.029,13.3026,4.60085,2470.67,2023-5-22T12:31:03Z
2023-05-22T10:31:54Z,42.805,6.029,13.3019,4.60082,2470.624,2023-5-22T12:34:06Z
2023-05-22T10:34:57Z,42.805,6.029,13.3019,4.60079,2470.684,2023-5-22T12:37:09Z
2023-05-22T10:38:00Z,42.805,6.029,13.3019,4.60077,2470.693,2023-5-22T12:40:12Z
2023-05-22T10:41:03Z,42.805,6.029,13.3020,4.60074,2470.646,2023-5-22T12:43:15Z
2023-05-22T10:44:06Z,42.805,6.029,13.3022,4.60079,2470.637,2023-5-22T12:46:19Z
2023-05-22T10:47:10Z,42.805,6.029,13.3017,4.60074,2470.624,2023-5-22T12:49:22Z
2023-05-22T10:50:13Z,42.805,6.029,13.3015,4.60074,2470.661,2023-5-22T12:52:25Z
2023-05-22T10:53:16Z,42.805,6.029,13.3021,4.60076,2470.624,2023-5-22T12:55:28Z
2023-05-22T10:56:19Z,42.805,6.029,13.3024,4.60076,2470.6,2023-5-22T12:58:31Z
2023-05-22T10:59:22Z,42.805,6.029,13.3019,4.60075,2470.614,2023-5-22T13:01:34Z
2023-05-22T11:02:25Z,42.805,6.029,13.3023,4.60077,2470.661,2023-5-22T13:04:37Z
2023-05-22T11:05:28Z,42.805,6.029,13.3019,4.60084,2470.6,2023-5-22T13:07:40Z
2023-05-22T11:08:31Z,42.805,6.029,13.3021,4.60075,2470.637,2023-5-22T13:10:43Z
2023-05-22T11:11:34Z,42.805,6.029,13.3020,4.60079,2470.646,2023-5-22T13:13:46Z
2023-05-22T11:14:37Z,42.805,6.029,13.3021,4.60076,2470.646,2023-5-22T13:16:49Z
2023-05-22T11:17:40Z,42.805,6.029,13.3021,4.60076,2470.624,2023-5-22T13:19:52Z
2023-05-22T11:20:44Z,42.805,6.029,13.3024,4.60075,2470.637,2023-5-22T13:22:56Z
2023-05-22T11:23:47Z,42.805,6.029,13.3022,4.60074,2470.6,2023-5-22T13:25:59Z
2023-05-22T11:26:50Z,42.805,6.029,13.3022,4.60078,2470.624,2023-5-22T13:29:02Z
2023-05-22T11:29:53Z,42.805,6.029,13.3018,4.60074,2470.637,2023-5-22T13:32:05Z
2023-05-22T11:32:56Z,42.805,6.029,13.3017,4.60074,2470.661,2023-5-22T13:35:08Z
2023-05-22T11:35:59Z,42.805,6.029,13.3025,4.60075,2470.637,2023-5-22T13:38:11Z
2023-05-22T11:39:02Z,42.805,6.029,13.3025,4.60076,2470.637,2023-5-22T13:41:14Z
2023-05-22T11:42:05Z,42.805,6.029,13.3021,4.60077,2470.624,2023-5-22T13:44:17Z
2023-05-22T11:45:08Z,42.805,6.029,13.3025,4.60074,2470.614,2023-5-22T13:47:20Z
2023-05-22T11:48:11Z,42.805,6.029,13.3019,4.60075,2470.591,2023-5-22T13:50:23Z
2023-05-22T11:51:14Z,42.805,6.029,13.3022,4.60074,2470.6,2023-5-22T13:53:26Z
2023-05-22T11:54:17Z,42.805,6.029,13.3022,4.60077,2470.6,2023-5-22T13:56:29Z
2023-05-22T11:57:20Z,42.805,6.029,13.3017,4.60075,2470.577,2023-5-22T13:59:33Z
2023-05-22T12:00:24Z,42.805,6.029,13.3021,4.60074,2470.577,2023-5-22T14:02:36Z
2023-05-22T12:03:27Z,42.805,6.029,13.3021,4.60074,2470.591,2023-5-22T14:05:39Z
2023-05-22T12:06:30Z,42.805,6.029,13.3024,4.60076,2470.6,2023-5-22T14:08:42Z
2023-05-22T12:09:33Z,42.805,6.029,13.3026,4.60075,2470.577,2023-5-22T14:11:45Z
2023-05-22T12:12:36Z,42.805,6.029,13.3019,4.60077,2470.614,2023-5-22T14:14:48Z
2023-05-22T12:15:39Z,42.805,6.029,13.3021,4.60074,2470.577,2023-5-22T14:17:51Z
2023-05-22T12:18:42Z,42.805,6.029,13.3021,4.60074,2470.591,2023-5-22T14:20:54Z
2023-05-22T12:21:45Z,42.805,6.029,13.3023,4.60074,2470.6,2023-5-22T14:23:57Z
2023-05-22T12:24:48Z,42.805,6.029,13.3020,4.60075,2470.586,2023-5-22T14:27:00Z
2023-05-22T12:27:51Z,42.805,6.029,13.3022,4.60077,2470.591,2023-5-22T14:30:03Z
2023-05-22T12:30:55Z,42.805,6.029,13.3023,4.60073,2470.553,2023-5-22T14:33:07Z
2023-05-22T12:33:58Z,42.805,6.029,13.3024,4.60073,2470.567,2023-5-22T14:36:10Z
2023-05-22T12:37:01Z,42.805,6.029,13.3020,4.60074,2470.567,2023-5-22T14:39:13Z
2023-05-22T12:40:04Z,42.805,6.029,13.3017,4.60084,2470.553,2023-5-22T14:42:16Z
2023-05-22T12:43:07Z,42.805,6.029,13.3017,4.60075,2470.577,2023-5-22T14:45:19Z
2023-05-22T12:46:10Z,42.805,6.029,13.3015,4.60075,2470.577,2023-5-22T14:48:22Z
2023-05-22T12:49:13Z,42.805,6.029,13.3018,4.60074,2470.553,2023-5-22T14:51:25Z
2023-05-22T12:52:16Z,42.805,6.029,13.3019,4.60075,2470.567,2023-5-22T14:54:29Z
2023-05-22T12:55:20Z,42.805,6.029,13.3019,4.60074,2470.553,2023-5-22T14:57:32Z
2023-05-22T12:58:23Z,42.805,6.029,13.3019,4.60074,2470.577,2023-5-22T15:00:35Z
2023-05-22T13:01:26Z,42.805,6.029,13.3019,4.60075,2470.591,2023-5-22T15:03:38Z
2023-05-22T13:04:29Z,42.805,6.029,13.3019,4.60095,2470.577,2023-5-22T15:06:41Z
2023-05-22T13:07:32Z,42.805,6.029,13.3019,4.60077,2470.6,2023-5-22T15:09:44Z
2023-05-22T13:10:35Z,42.805,6.029,13.3018,4.60074,2470.553,2023-5-22T15:12:47Z
2023-05-22T13:13:38Z,42.805,6.029,13.3023,4.60074,2470.553,2023-5-22T15:15:50Z
2023-05-22T13:16:41Z,42.805,6.029,13.3017,4.60074,2470.553,2023-5-22T15:18:53Z
2023-05-22T13:19:44Z,42.805,6.029,13.3019,4.60074,2470.591,2023-5-22T15:21:56Z
2023-05-22T13:22:47Z,42.805,6.029,13.3019,4.60074,2470.544,2023-5-22T15:24:59Z
2023-05-22T13:25:50Z,42.805,6.029,13.3020,4.60073,2470.577,2023-5-22T15:28:02Z
2023-05-22T13:28:53Z,42.805,6.029,13.3017,4.60074,2470.553,2023-5-22T15:31:06Z
2023-05-22T13:31:57Z,42.805,6.029,13.3021,4.60074,2470.577,2023-5-22T15:34:09Z
2023-05-22T13:35:00Z,42.805,6.029,13.3019,4.60074,2470.553,2023-5-22T15:37:12Z
2023-05-22T13:38:03Z,42.805,6.029,13.3022,4.60077,2470.553,2023-5-22T15:40:15Z
2023-05-22T13:41:06Z,42.805,6.029,13.3021,4.60074,2470.567,2023-5-22T15:43:18Z
2023-05-22T13:44:09Z,42.805,6.029,13.3017,4.60073,2470.577,2023-5-22T15:46:21Z
2023-05-22T13:47:12Z,42.805,6.029,13.3019,4.60073,2470.553,2023-5-22T15:49:24Z
2023-05-22T13:50:15Z,42.805,6.029,13.3016,4.60075,2470.553,2023-5-22T15:52:27Z
2023-05-22T13:53:18Z,42.805,6.029,13.3016,4.60073,2470.567,2023-5-22T15:55:30Z
2023-05-22T13:56:21Z,42.805,6.029,13.3018,4.60080,2470.567,2023-5-22T15:58:33Z
2023-05-22T13:59:24Z,42.805,6.029,13.3021,4.60074,2470.53,2023-5-22T16:01:36Z
2023-05-22T14:02:27Z,42.805,6.029,13.3014,4.60074,2470.553,2023-5-22T16:04:39Z
2023-05-22T14:05:30Z,42.805,6.029,13.3020,4.60077,2470.553,2023-5-22T16:07:43Z
2023-05-22T14:08:34Z,42.805,6.029,13.3018,4.60074,2470.53,2023-5-22T16:10:46Z
2023-05-22T14:11:37Z,42.805,6.029,13.3019,4.60079,2470.553,2023-5-22T16:13:49Z
2023-05-22T14:14:40Z,42.805,6.029,13.3021,4.60074,2470.53,2023-5-22T16:16:52Z
2023-05-22T14:17:43Z,42.805,6.029,13.3022,4.60073,2470.53,2023-5-22T16:19:55Z
2023-05-22T14:20:46Z,42.805,6.029,13.3018,4.60074,2470.52,2023-5-22T16:22:58Z
2023-05-22T14:23:49Z,42.805,6.029,13.3019,4.60074,2470.577,2023-5-22T16:26:01Z
2023-05-22T14:26:52Z,42.805,6.029,13.3019,4.60076,2470.553,2023-5-22T16:29:04Z
2023-05-22T14:29:55Z,42.805,6.029,13.3019,4.60079,2470.553,2023-5-22T16:32:07Z
2023-05-22T14:32:59Z,42.805,6.029,13.3019,4.60077,2470.53,2023-5-22T16:35:11Z
2023-05-22T14:36:02Z,42.805,6.029,13.3019,4.60078,2470.507,2023-5-22T16:38:14Z
2023-05-22T14:39:05Z,42.805,6.029,13.3023,4.60074,2470.567,2023-5-22T16:41:17Z
2023-05-22T14:42:08Z,42.805,6.029,13.3021,4.60076,2470.53,2023-5-22T16:44:20Z
2023-05-22T14:45:11Z,42.805,6.029,13.3019,4.60074,2470.507,2023-5-22T16:47:23Z
2023-05-22T14:48:14Z,42.805,6.029,13.3021,4.60075,2470.507,2023-5-22T16:50:26Z
2023-05-22T14:51:17Z,42.805,6.029,13.3021,4.60080,2470.553,2023-5-22T16:53:29Z
2023-05-22T14:54:20Z,42.805,6.029,13.3019,4.60074,2470.507,2023-5-22T16:56:33Z
2023-05-22T14:57:24Z,42.805,6.029,13.3025,4.60078,2470.567,2023-5-22T16:59:36Z
2023-05-22T15:00:27Z,42.805,6.029,13.3019,4.60079,2470.53,2023-5-22T17:02:39Z
2023-05-22T15:03:30Z,42.805,6.029,13.3019,4.60076,2470.53,2023-5-22T17:05:42Z
2023-05-22T15:06:33Z,42.805,6.029,13.3023,4.60079,2470.544,2023-5-22T17:08:45Z
2023-05-22T15:09:36Z,42.805,6.029,13.3019,4.60077,2470.553,2023-5-22T17:11:48Z
2023-05-22T15:12:39Z,42.805,6.029,13.3018,4.60077,2470.553,2023-5-22T17:14:51Z